| time (UTC) | temp F | wind direction | speed MPH | gust MPH | rain 1hr in | rain 24hr in | rain mn in | humidity % | barometer mb |
| 20260510200857 | 89 | 74 | 0.0 | 4.0 | 0.00 | 0.00 | 0.00 | 23 | 1010.3 |
| 20260510200341 | 89 | 30 | 1.0 | 4.0 | 0.00 | 0.00 | 0.00 | 26 | 1010.2 |
| 20260510195827 | 89 | 95 | 1.0 | 2.0 | 0.00 | 0.00 | 0.00 | 25 | 1010.3 |
| 20260510195334 | 89 | 96 | 0.0 | 2.0 | 0.00 | 0.00 | 0.00 | 24 | 1010.4 |
| 20260510194837 | 89 | 172 | 0.0 | 3.0 | 0.00 | 0.00 | 0.00 | 23 | 1010.4 |
| 20260510194352 | 89 | 55 | 0.0 | 2.0 | 0.00 | 0.00 | 0.00 | 23 | 1010.4 |
| 20260510193902 | 89 | 287 | 0.0 | 2.0 | 0.00 | 0.00 | 0.00 | 23 | 1010.4 |
| 20260510193338 | 88 | 267 | 1.0 | 2.0 | 0.00 | 0.00 | 0.00 | 24 | 1010.6 |
| 20260510192829 | 88 | 360 | 0.0 | 3.0 | 0.00 | 0.00 | 0.00 | 23 | 1010.6 |
| 20260510192333 | 88 | 298 | 0.0 | 4.0 | 0.00 | 0.00 | 0.00 | 25 | 1010.7 |
| 20260510191838 | 88 | 273 | 1.0 | 4.0 | 0.00 | 0.00 | 0.00 | 25 | 1010.7 |
| 20260510191353 | 88 | 355 | 0.0 | 4.0 | 0.00 | 0.00 | 0.00 | 23 | 1010.8 |
| 20260510190904 | 88 | 202 | 1.0 | 2.0 | 0.00 | 0.00 | 0.00 | 23 | 1010.9 |
| 20260510190354 | 88 | 192 | 1.0 | 3.0 | 0.00 | 0.00 | 0.00 | 24 | 1010.9 |
| 20260510185834 | 88 | 136 | 1.0 | 3.0 | 0.00 | 0.00 | 0.00 | 23 | 1010.9 |
| 20260510185400 | 87 | 221 | 1.0 | 3.0 | 0.00 | 0.00 | 0.00 | 23 | 1011.0 |
| 20260510184833 | 87 | 24 | 2.0 | 4.0 | 0.00 | 0.00 | 0.00 | 24 | 1011.0 |
| 20260510184334 | 87 | 51 | 2.0 | 4.0 | 0.00 | 0.00 | 0.00 | 22 | 1011.1 |
| 20260510183851 | 88 | 59 | 1.0 | 3.0 | 0.00 | 0.00 | 0.00 | 23 | 1011.1 |
| 20260510183331 | 88 | 247 | 1.0 | 3.0 | 0.00 | 0.00 | 0.00 | 26 | 1011.1 |
| 20260510182839 | 88 | 94 | 0.0 | 3.0 | 0.00 | 0.00 | 0.00 | 21 | 1011.1 |
| 20260510182340 | 88 | 109 | 1.0 | 3.0 | 0.00 | 0.00 | 0.00 | 23 | 1011.2 |
| 20260510181843 | 88 | 35 | 1.0 | 4.0 | 0.00 | 0.00 | 0.00 | 21 | 1011.1 |
| 20260510181340 | 88 | 304 | 1.0 | 5.0 | 0.00 | 0.00 | 0.00 | 24 | 1011.1 |
| 20260510180841 | 88 | 84 | 0.0 | 5.0 | 0.00 | 0.00 | 0.00 | 22 | 1011.0 |
| 20260510180343 | 88 | 80 | 1.0 | 3.0 | 0.00 | 0.00 | 0.00 | 24 | 1011.0 |
| 20260510175844 | 88 | 101 | 0.0 | 2.0 | 0.00 | 0.00 | 0.00 | 24 | 1011.1 |
| 20260510175328 | 87 | 72 | 1.0 | 2.0 | 0.00 | 0.00 | 0.00 | 27 | 1011.1 |
| 20260510174839 | 87 | 105 | 0.0 | 3.0 | 0.00 | 0.00 | 0.00 | 24 | 1011.1 |
| 20260510174341 | 87 | 66 | 0.0 | 2.0 | 0.00 | 0.00 | 0.00 | 27 | 1011.2 |
| 20260510173845 | 87 | 69 | 1.0 | 2.0 | 0.00 | 0.00 | 0.00 | 27 | 1011.3 |
| 20260510173358 | 86 | 74 | 1.0 | 2.0 | 0.00 | 0.00 | 0.00 | 29 | 1011.3 |
| 20260510172856 | 86 | 40 | 1.0 | 2.0 | 0.00 | 0.00 | 0.00 | 27 | 1011.3 |
| 20260510172358 | 86 | 36 | 0.0 | 3.0 | 0.00 | 0.00 | 0.00 | 27 | 1011.3 |
| 20260510171842 | 86 | 37 | 1.0 | 3.0 | 0.00 | 0.00 | 0.00 | 27 | 1011.4 |
| 20260510171335 | 86 | 27 | 0.0 | 4.0 | 0.00 | 0.00 | 0.00 | 30 | 1011.3 |
| 20260510170832 | 86 | 30 | 0.0 | 2.0 | 0.00 | 0.00 | 0.00 | 25 | 1011.4 |
| 20260510170341 | 86 | 270 | 0.0 | 2.0 | 0.00 | 0.00 | 0.00 | 29 | 1011.3 |
| 20260510165844 | 85 | 244 | 0.0 | 3.0 | 0.00 | 0.00 | 0.00 | 25 | 1011.4 |
| 20260510165344 | 85 | 206 | 1.0 | 3.0 | 0.00 | 0.00 | 0.00 | 25 | 1011.5 |
| 20260510164849 | 85 | 140 | 0.0 | 2.0 | 0.00 | 0.00 | 0.00 | 26 | 1011.5 |
| 20260510164346 | 85 | 140 | 0.0 | 2.0 | 0.00 | 0.00 | 0.00 | 27 | 1011.6 |
| 20260510163920 | 85 | 140 | 1.0 | 2.0 | 0.00 | 0.00 | 0.00 | 30 | 1011.7 |
| 20260510163342 | 84 | 140 | 0.0 | 3.0 | 0.00 | 0.00 | 0.00 | 30 | 1011.7 |
| 20260510162850 | 84 | 223 | 1.0 | 3.0 | 0.00 | 0.00 | 0.00 | 31 | 1011.6 |
| 20260510162353 | 85 | 236 | 1.0 | 3.0 | 0.00 | 0.00 | 0.00 | 30 | 1011.7 |
| 20260510161857 | 84 | 58 | 0.0 | 1.0 | 0.00 | 0.00 | 0.00 | 34 | 1011.7 |
| 20260510161345 | 84 | 58 | 0.0 | 2.0 | 0.00 | 0.00 | 0.00 | 33 | 1011.8 |
| 20260510160918 | 83 | 56 | 0.0 | 2.0 | 0.00 | 0.00 | 0.00 | 33 | 1011.9 |
| 20260510160330 | 84 | 57 | 1.0 | 2.0 | 0.00 | 0.00 | 0.00 | 32 | 1011.9 |
| 20260510155831 | 83 | 57 | 1.0 | 4.0 | 0.00 | 0.00 | 0.00 | 33 | 1012.0 |
| 20260510155351 | 83 | 57 | 0.0 | 4.0 | 0.00 | 0.00 | 0.00 | 33 | 1011.9 |
| 20260510154854 | 83 | 51 | 0.0 | 4.0 | 0.00 | 0.00 | 0.00 | 35 | 1012.0 |
| 20260510154332 | 83 | 228 | 1.0 | 4.0 | 0.00 | 0.00 | 0.00 | 33 | 1012.2 |
| 20260510153903 | 83 | 142 | 0.0 | 2.0 | 0.00 | 0.00 | 0.00 | 35 | 1012.2 |
| 20260510153346 | 83 | 142 | 0.0 | 2.0 | 0.00 | 0.00 | 0.00 | 35 | 1012.2 |
| 20260510152846 | 82 | 35 | 0.0 | 2.0 | 0.00 | 0.00 | 0.00 | 34 | 1012.2 |
| 20260510152334 | 83 | 219 | 1.0 | 2.0 | 0.00 | 0.00 | 0.00 | 35 | 1012.2 |
| 20260510151837 | 82 | 214 | 0.0 | 1.0 | 0.00 | 0.00 | 0.00 | 38 | 1012.1 |
| 20260510151334 | 82 | 214 | 0.0 | 2.0 | 0.00 | 0.00 | 0.00 | 38 | 1012.2 |
| 20260510150851 | 82 | 214 | 1.0 | 3.0 | 0.00 | 0.00 | 0.00 | 36 | 1012.0 |
| 20260510150331 | 81 | 215 | 0.0 | 2.0 | 0.00 | 0.00 | 0.00 | 41 | 1012.0 |
| 20260510145828 | 81 | 216 | 0.0 | 3.0 | 0.00 | 0.00 | 0.00 | 45 | 1012.0 |
| 20260510145327 | 80 | 217 | 1.0 | 3.0 | 0.00 | 0.00 | 0.00 | 38 | 1012.0 |
| 20260510144925 | 80 | 220 | 0.0 | 2.0 | 0.00 | 0.00 | 0.00 | 44 | 1012.0 |
| 20260510144330 | 79 | 219 | 1.0 | 2.0 | 0.00 | 0.00 | 0.00 | 43 | 1011.9 |
| 20260510143844 | 79 | 91 | 1.0 | 2.0 | 0.00 | 0.00 | 0.00 | 44 | 1011.8 |
| 20260510143352 | 78 | 78 | 0.0 | 0.0 | 0.00 | 0.00 | 0.00 | 43 | 1011.8 |
| 20260510142845 | 78 | 78 | 0.0 | 0.0 | 0.00 | 0.00 | 0.00 | 45 | 1011.8 |
| 20260510142345 | 77 | 55 | 0.0 | 0.0 | 0.00 | 0.00 | 0.00 | 49 | 1011.9 |
| 20260510141831 | 77 | 55 | 0.0 | 0.0 | 0.00 | 0.00 | 0.00 | 47 | 1011.9 |
| 20260510141403 | 77 | 55 | 0.0 | 0.0 | 0.00 | 0.00 | 0.00 | 50 | 1011.9 |
| 20260510140847 | 77 | 55 | 0.0 | 0.0 | 0.00 | 0.00 | 0.00 | 50 | 1011.9 |
| 20260510140351 | 77 | 61 | 0.0 | 0.0 | 0.00 | 0.00 | 0.00 | 55 | 1011.9 |
| 20260510135907 | 76 | 60 | 0.0 | 0.0 | 0.00 | 0.00 | 0.00 | 52 | 1012.1 |
| 20260510135325 | 75 | 60 | 0.0 | 0.0 | 0.00 | 0.00 | 0.00 | 56 | 1012.0 |
| 20260510134856 | 75 | 84 | 0.0 | 2.0 | 0.00 | 0.00 | 0.00 | 56 | 1012.0 |
| 20260510134359 | 74 | 341 | 1.0 | 2.0 | 0.00 | 0.00 | 0.00 | 57 | 1012.0 |
| 20260510133839 | 73 | 341 | 0.0 | 2.0 | 0.00 | 0.00 | 0.00 | 61 | 1011.9 |
| 20260510133347 | 72 | 341 | 0.0 | 2.0 | 0.00 | 0.00 | 0.00 | 61 | 1011.8 |
| 20260510132828 | 72 | 222 | 0.0 | 3.0 | 0.00 | 0.00 | 0.00 | 64 | 1012.0 |
| 20260510132344 | 71 | 236 | 1.0 | 3.0 | 0.00 | 0.00 | 0.00 | 67 | 1011.8 |
| 20260510131837 | 70 | 98 | 0.0 | 2.0 | 0.00 | 0.00 | 0.00 | 71 | 1011.8 |
| 20260510131334 | 69 | 98 | 1.0 | 2.0 | 0.00 | 0.00 | 0.00 | 73 | 1011.7 |
| 20260510130834 | 68 | 98 | 0.0 | 2.0 | 0.00 | 0.00 | 0.00 | 75 | 1011.8 |
| 20260510130332 | 68 | 107 | 0.0 | 2.0 | 0.00 | 0.00 | 0.00 | 77 | 1011.9 |
| 20260510125831 | 67 | 107 | 0.0 | 1.0 | 0.00 | 0.00 | 0.00 | 80 | 1011.9 |
| 20260510125327 | 66 | 107 | 0.0 | 1.0 | 0.00 | 0.00 | 0.00 | 82 | 1011.8 |
| 20260510124908 | 65 | 107 | 0.0 | 1.0 | 0.00 | 0.00 | 0.00 | 84 | 1011.7 |
| 20260510124327 | 64 | 107 | 0.0 | 1.0 | 0.00 | 0.00 | 0.00 | 87 | 1011.7 |
| 20260510123907 | 64 | 107 | 0.0 | 1.0 | 0.00 | 0.00 | 0.00 | 89 | 1011.8 |
| 20260510123329 | 63 | 107 | 0.0 | 1.0 | 0.00 | 0.00 | 0.00 | 90 | 1011.8 |
| 20260510122835 | 63 | 107 | 0.0 | 1.0 | 0.00 | 0.00 | 0.00 | 90 | 1011.7 |
| 20260510122359 | 62 | 107 | 0.0 | 0.0 | 0.00 | 0.00 | 0.00 | 90 | 1011.7 |
| 20260510121829 | 61 | 107 | 0.0 | 0.0 | 0.00 | 0.00 | 0.00 | 90 | 1011.6 |
| 20260510121403 | 61 | 107 | 0.0 | 0.0 | 0.00 | 0.00 | 0.00 | 90 | 1011.5 |
| 20260510120842 | 60 | 107 | 0.0 | 0.0 | 0.00 | 0.00 | 0.00 | 90 | 1011.5 |
| 20260510120348 | 60 | 105 | 0.0 | 0.0 | 0.00 | 0.00 | 0.00 | 90 | 1011.2 |
| 20260510115851 | 59 | 105 | 0.0 | 0.0 | 0.00 | 0.00 | 0.00 | 90 | 1011.2 |
| 20260510115346 | 59 | 105 | 0.0 | 0.0 | 0.00 | 0.00 | 0.00 | 89 | 1011.0 |
| 20260510114854 | 59 | 105 | 0.0 | 0.0 | 0.00 | 0.00 | 0.00 | 90 | 1011.0 |
| 20260510114332 | 58 | 105 | 0.0 | 0.0 | 0.00 | 0.00 | 0.00 | 89 | 1011.1 |
| 20260510113845 | 58 | 105 | 0.0 | 0.0 | 0.00 | 0.00 | 0.00 | 90 | 1011.0 |
| 20260510113408 | 58 | 105 | 0.0 | 0.0 | 0.00 | 0.00 | 0.00 | 89 | 1011.0 |
| 20260510112856 | 57 | 105 | 0.0 | 0.0 | 0.00 | 0.00 | 0.00 | 89 | 1011.0 |
| 20260510112358 | 57 | 105 | 0.0 | 0.0 | 0.00 | 0.00 | 0.00 | 89 | 1010.9 |
| 20260510111900 | 57 | 105 | 0.0 | 0.0 | 0.00 | 0.00 | 0.00 | 89 | 1010.8 |
| 20260510111337 | 57 | 105 | 0.0 | 0.0 | 0.00 | 0.00 | 0.00 | 89 | 1010.7 |
| 20260510110828 | 56 | 105 | 0.0 | 0.0 | 0.00 | 0.00 | 0.00 | 89 | 1010.6 |
| 20260510110335 | 56 | 105 | 0.0 | 0.0 | 0.00 | 0.00 | 0.00 | 89 | 1010.5 |
| 20260510105829 | 56 | 105 | 0.0 | 1.0 | 0.00 | 0.00 | 0.00 | 89 | 1010.4 |
| 20260510105333 | 56 | 105 | 0.0 | 1.0 | 0.00 | 0.00 | 0.00 | 89 | 1010.5 |
| 20260510104840 | 55 | 105 | 0.0 | 0.0 | 0.00 | 0.00 | 0.00 | 88 | 1010.2 |
| 20260510104329 | 55 | 105 | 0.0 | 1.0 | 0.00 | 0.00 | 0.00 | 88 | 1010.1 |
| 20260510103919 | 55 | 105 | 0.0 | 1.0 | 0.00 | 0.00 | 0.00 | 88 | 1010.1 |
| 20260510103401 | 55 | 106 | 0.0 | 0.0 | 0.00 | 0.00 | 0.00 | 88 | 1010.1 |
| 20260510102837 | 55 | 106 | 0.0 | 0.0 | 0.00 | 0.00 | 0.00 | 88 | 1010.0 |
| 20260510102347 | 55 | 106 | 0.0 | 0.0 | 0.00 | 0.00 | 0.00 | 88 | 1010.0 |
| 20260510101847 | 55 | 106 | 0.0 | 0.0 | 0.00 | 0.00 | 0.00 | 88 | 1010.0 |
| 20260510101328 | 55 | 106 | 0.0 | 0.0 | 0.00 | 0.00 | 0.00 | 88 | 1009.9 |
| 20260510100827 | 55 | 106 | 0.0 | 0.0 | 0.00 | 0.00 | 0.00 | 88 | 1009.7 |
| 20260510100335 | 56 | 106 | 0.0 | 0.0 | 0.00 | 0.00 | 0.00 | 88 | 1009.6 |
| 20260510095831 | 56 | 106 | 0.0 | 0.0 | 0.00 | 0.00 | 0.00 | 88 | 1009.7 |
| 20260510095332 | 56 | 106 | 0.0 | 0.0 | 0.00 | 0.00 | 0.00 | 88 | 1009.5 |
| 20260510094842 | 56 | 106 | 0.0 | 0.0 | 0.00 | 0.00 | 0.00 | 88 | 1009.5 |
| 20260510094343 | 56 | 106 | 0.0 | 0.0 | 0.00 | 0.00 | 0.00 | 88 | 1009.4 |
| 20260510093851 | 56 | 106 | 0.0 | 0.0 | 0.00 | 0.00 | 0.00 | 88 | 1009.2 |
| 20260510093341 | 56 | 106 | 0.0 | 0.0 | 0.00 | 0.00 | 0.00 | 88 | 1009.3 |
| 20260510092837 | 56 | 106 | 0.0 | 0.0 | 0.00 | 0.00 | 0.00 | 88 | 1009.2 |
| 20260510092337 | 56 | 106 | 0.0 | 0.0 | 0.00 | 0.00 | 0.00 | 88 | 1009.2 |
| 20260510091845 | 56 | 106 | 0.0 | 0.0 | 0.00 | 0.00 | 0.00 | 88 | 1009.1 |
| 20260510091346 | 57 | 106 | 0.0 | 0.0 | 0.00 | 0.00 | 0.00 | 88 | 1009.2 |
| 20260510090832 | 57 | 106 | 0.0 | 0.0 | 0.00 | 0.00 | 0.00 | 88 | 1009.1 |
| 20260510090335 | 57 | 106 | 0.0 | 0.0 | 0.00 | 0.00 | 0.00 | 88 | 1009.0 |
| 20260510085836 | 57 | 106 | 0.0 | 0.0 | 0.00 | 0.00 | 0.00 | 88 | 1008.9 |
| 20260510085328 | 57 | 106 | 0.0 | 0.0 | 0.00 | 0.00 | 0.00 | 88 | 1009.0 |
| 20260510084916 | 57 | 106 | 0.0 | 0.0 | 0.00 | 0.00 | 0.00 | 88 | 1008.9 |
| 20260510084351 | 57 | 106 | 0.0 | 0.0 | 0.00 | 0.00 | 0.00 | 88 | 1009.0 |
| 20260510083851 | 57 | 106 | 0.0 | 0.0 | 0.00 | 0.00 | 0.00 | 88 | 1008.9 |
| 20260510083334 | 57 | 106 | 0.0 | 0.0 | 0.00 | 0.00 | 0.00 | 88 | 1008.9 |
| 20260510082836 | 58 | 106 | 0.0 | 0.0 | 0.00 | 0.00 | 0.00 | 88 | 1008.7 |
| 20260510082348 | 58 | 106 | 0.0 | 0.0 | 0.00 | 0.00 | 0.00 | 88 | 1008.7 |
| 20260510081844 | 58 | 106 | 0.0 | 0.0 | 0.00 | 0.00 | 0.00 | 88 | 1008.7 |
| 20260510081346 | 58 | 106 | 0.0 | 0.0 | 0.00 | 0.00 | 0.00 | 88 | 1008.8 |
| 20260510080830 | 58 | 106 | 0.0 | 0.0 | 0.00 | 0.00 | 0.00 | 88 | 1008.8 |
| 20260510080406 | 58 | 106 | 0.0 | 0.0 | 0.00 | 0.00 | 0.00 | 88 | 1008.7 |
| 20260510075827 | 58 | 106 | 0.0 | 0.0 | 0.00 | 0.00 | 0.00 | 87 | 1008.7 |
| 20260510075331 | 58 | 106 | 0.0 | 0.0 | 0.00 | 0.00 | 0.00 | 87 | 1008.7 |
| 20260510074834 | 58 | 106 | 0.0 | 0.0 | 0.00 | 0.00 | 0.00 | 87 | 1008.7 |
| 20260510074334 | 58 | 106 | 0.0 | 0.0 | 0.00 | 0.00 | 0.00 | 88 | 1008.7 |
| 20260510073840 | 58 | 106 | 0.0 | 0.0 | 0.00 | 0.00 | 0.00 | 87 | 1008.7 |
| 20260510073342 | 58 | 106 | 0.0 | 0.0 | 0.00 | 0.00 | 0.00 | 87 | 1008.6 |
| 20260510072842 | 58 | 106 | 0.0 | 0.0 | 0.00 | 0.00 | 0.00 | 87 | 1008.5 |
| 20260510072353 | 58 | 106 | 0.0 | 0.0 | 0.00 | 0.00 | 0.00 | 87 | 1008.5 |
| 20260510071853 | 58 | 106 | 0.0 | 0.0 | 0.00 | 0.00 | 0.00 | 87 | 1008.4 |
| 20260510071350 | 58 | 106 | 0.0 | 0.0 | 0.00 | 0.00 | 0.00 | 87 | 1008.5 |
| 20260510070857 | 58 | 106 | 0.0 | 0.0 | 0.00 | 0.00 | 0.00 | 87 | 1008.6 |
| 20260510070340 | 58 | 106 | 0.0 | 0.0 | 0.00 | 0.00 | 0.00 | 87 | 1008.5 |
| 20260510065847 | 58 | 106 | 0.0 | 0.0 | 0.00 | 0.00 | 0.00 | 87 | 1008.6 |
| 20260510065332 | 58 | 106 | 0.0 | 0.0 | 0.00 | 0.00 | 0.00 | 87 | 1008.6 |
| 20260510064852 | 59 | 106 | 0.0 | 1.0 | 0.00 | 0.00 | 0.00 | 87 | 1008.6 |
| 20260510064343 | 59 | 106 | 0.0 | 0.0 | 0.00 | 0.00 | 0.00 | 87 | 1008.5 |
| 20260510063854 | 59 | 106 | 0.0 | 0.0 | 0.00 | 0.00 | 0.00 | 86 | 1008.4 |
| 20260510063354 | 59 | 106 | 0.0 | 0.0 | 0.00 | 0.00 | 0.00 | 86 | 1008.5 |
| 20260510062855 | 59 | 106 | 0.0 | 0.0 | 0.00 | 0.00 | 0.00 | 86 | 1008.5 |
| 20260510062332 | 59 | 106 | 0.0 | 0.0 | 0.00 | 0.00 | 0.00 | 86 | 1008.6 |
| 20260510061842 | 59 | 106 | 0.0 | 0.0 | 0.00 | 0.00 | 0.00 | 86 | 1008.7 |
| 20260510061413 | 59 | 106 | 0.0 | 0.0 | 0.00 | 0.00 | 0.00 | 86 | 1008.8 |
| 20260510060859 | 59 | 106 | 0.0 | 0.0 | 0.00 | 0.00 | 0.00 | 86 | 1008.8 |
| 20260510060330 | 59 | 106 | 0.0 | 0.0 | 0.00 | 0.00 | 0.00 | 86 | 1008.9 |
| 20260510055842 | 59 | 106 | 0.0 | 0.0 | 0.00 | 0.00 | 0.00 | 85 | 1008.8 |
| 20260510055351 | 59 | 106 | 0.0 | 0.0 | 0.00 | 0.00 | 0.00 | 85 | 1008.8 |
| 20260510054835 | 59 | 106 | 0.0 | 0.0 | 0.00 | 0.00 | 0.00 | 85 | 1008.9 |
| 20260510054332 | 59 | 106 | 0.0 | 0.0 | 0.00 | 0.00 | 0.00 | 85 | 1008.9 |
| 20260510053835 | 59 | 106 | 0.0 | 0.0 | 0.00 | 0.00 | 0.00 | 84 | 1008.9 |
| 20260510053334 | 60 | 106 | 0.0 | 0.0 | 0.00 | 0.00 | 0.00 | 84 | 1009.0 |
| 20260510052838 | 60 | 106 | 0.0 | 0.0 | 0.00 | 0.00 | 0.00 | 84 | 1009.0 |
| 20260510052338 | 60 | 106 | 0.0 | 0.0 | 0.00 | 0.00 | 0.00 | 84 | 1009.0 |
| 20260510051850 | 60 | 106 | 0.0 | 0.0 | 0.00 | 0.00 | 0.00 | 84 | 1009.0 |
| 20260510051324 | 60 | 106 | 0.0 | 0.0 | 0.00 | 0.00 | 0.00 | 83 | 1009.0 |
| 20260510050835 | 60 | 106 | 0.0 | 0.0 | 0.00 | 0.00 | 0.00 | 83 | 1009.0 |
| 20260510050406 | 60 | 106 | 0.0 | 0.0 | 0.00 | 0.00 | 0.00 | 83 | 1009.0 |
| 20260510045842 | 60 | 106 | 0.0 | 0.0 | 0.00 | 0.00 | 0.00 | 83 | 1009.0 |
| 20260510045330 | 60 | 106 | 0.0 | 0.0 | 0.00 | 0.00 | 0.00 | 83 | 1009.0 |
| 20260510044854 | 60 | 106 | 0.0 | 0.0 | 0.00 | 0.00 | 0.00 | 82 | 1009.0 |
| 20260510044335 | 61 | 106 | 0.0 | 0.0 | 0.00 | 0.00 | 0.00 | 82 | 1009.0 |
| 20260510043843 | 61 | 106 | 0.0 | 0.0 | 0.00 | 0.00 | 0.00 | 81 | 1008.9 |
| 20260510043326 | 61 | 106 | 0.0 | 0.0 | 0.00 | 0.00 | 0.00 | 81 | 1008.9 |
| 20260510042829 | 61 | 106 | 0.0 | 0.0 | 0.00 | 0.00 | 0.00 | 80 | 1009.0 |
| 20260510042331 | 61 | 106 | 0.0 | 0.0 | 0.00 | 0.00 | 0.00 | 80 | 1008.8 |
| 20260510041847 | 61 | 106 | 0.0 | 0.0 | 0.00 | 0.00 | 0.00 | 80 | 1008.8 |
| 20260510041403 | 62 | 106 | 0.0 | 0.0 | 0.00 | 0.00 | 0.00 | 80 | 1008.8 |
| 20260510040846 | 62 | 106 | 0.0 | 0.0 | 0.00 | 0.00 | 0.00 | 79 | 1008.7 |
| 20260510040329 | 62 | 106 | 0.0 | 0.0 | 0.00 | 0.00 | 0.00 | 79 | 1008.7 |
| 20260510035835 | 62 | 106 | 0.0 | 0.0 | 0.00 | 0.00 | 0.00 | 79 | 1008.7 |
| 20260510035337 | 62 | 106 | 0.0 | 0.0 | 0.00 | 0.00 | 0.00 | 79 | 1008.7 |
| 20260510034906 | 62 | 106 | 0.0 | 0.0 | 0.00 | 0.00 | 0.00 | 79 | 1008.6 |
| 20260510034335 | 62 | 106 | 0.0 | 0.0 | 0.00 | 0.00 | 0.00 | 78 | 1008.6 |
| 20260510033828 | 62 | 106 | 0.0 | 0.0 | 0.00 | 0.00 | 0.00 | 78 | 1008.7 |
| 20260510033333 | 62 | 106 | 0.0 | 0.0 | 0.00 | 0.00 | 0.00 | 78 | 1008.6 |
| 20260510032832 | 62 | 106 | 0.0 | 0.0 | 0.00 | 0.00 | 0.00 | 78 | 1008.5 |
| 20260510032332 | 62 | 106 | 0.0 | 0.0 | 0.00 | 0.00 | 0.00 | 77 | 1008.5 |
| 20260510031907 | 62 | 106 | 0.0 | 0.0 | 0.00 | 0.00 | 0.00 | 77 | 1008.5 |
| 20260510031400 | 62 | 106 | 0.0 | 0.0 | 0.00 | 0.00 | 0.00 | 77 | 1008.4 |
| 20260510030841 | 63 | 106 | 0.0 | 1.0 | 0.00 | 0.00 | 0.00 | 76 | 1008.4 |
| 20260510030343 | 63 | 106 | 0.0 | 1.0 | 0.00 | 0.00 | 0.00 | 76 | 1008.3 |
| 20260510025843 | 63 | 106 | 0.0 | 0.0 | 0.00 | 0.00 | 0.00 | 76 | 1008.3 |
| 20260510025327 | 63 | 106 | 0.0 | 0.0 | 0.00 | 0.00 | 0.00 | 76 | 1008.3 |
| 20260510024835 | 63 | 106 | 0.0 | 0.0 | 0.00 | 0.00 | 0.00 | 75 | 1008.4 |
| 20260510024414 | 63 | 106 | 0.0 | 0.0 | 0.00 | 0.00 | 0.00 | 75 | 1008.4 |
| 20260510023855 | 63 | 106 | 0.0 | 0.0 | 0.00 | 0.00 | 0.00 | 74 | 1008.3 |
| 20260510023352 | 63 | 106 | 0.0 | 0.0 | 0.00 | 0.00 | 0.00 | 74 | 1008.3 |
| 20260510022858 | 64 | 106 | 0.0 | 0.0 | 0.00 | 0.00 | 0.00 | 74 | 1008.2 |
| 20260510022338 | 64 | 106 | 0.0 | 0.0 | 0.00 | 0.00 | 0.00 | 73 | 1008.1 |
| 20260510021838 | 64 | 106 | 0.0 | 0.0 | 0.00 | 0.00 | 0.00 | 73 | 1008.1 |
| 20260510021340 | 64 | 106 | 0.0 | 0.0 | 0.00 | 0.00 | 0.00 | 73 | 1008.0 |
| 20260510020841 | 64 | 106 | 0.0 | 0.0 | 0.00 | 0.00 | 0.00 | 73 | 1008.0 |
| 20260510020338 | 64 | 106 | 0.0 | 0.0 | 0.00 | 0.00 | 0.00 | 72 | 1008.0 |
| 20260510015841 | 64 | 106 | 0.0 | 0.0 | 0.00 | 0.00 | 0.00 | 71 | 1007.9 |
| 20260510015343 | 65 | 106 | 0.0 | 0.0 | 0.00 | 0.00 | 0.00 | 71 | 1007.9 |
| 20260510014844 | 65 | 106 | 0.0 | 0.0 | 0.00 | 0.00 | 0.00 | 70 | 1007.9 |
| 20260510014407 | 65 | 106 | 0.0 | 0.0 | 0.00 | 0.00 | 0.00 | 70 | 1007.8 |
| 20260510013856 | 65 | 106 | 0.0 | 0.0 | 0.00 | 0.00 | 0.00 | 69 | 1007.8 |
| 20260510013338 | 66 | 106 | 0.0 | 0.0 | 0.00 | 0.00 | 0.00 | 69 | 1007.9 |
| 20260510012834 | 66 | 106 | 0.0 | 0.0 | 0.00 | 0.00 | 0.00 | 68 | 1007.8 |
| 20260510012342 | 66 | 106 | 0.0 | 0.0 | 0.00 | 0.00 | 0.00 | 68 | 1007.8 |
| 20260510011826 | 66 | 106 | 0.0 | 0.0 | 0.00 | 0.00 | 0.00 | 67 | 1007.7 |
| 20260510011352 | 67 | 106 | 0.0 | 0.0 | 0.00 | 0.00 | 0.00 | 67 | 1007.7 |
| 20260510010901 | 67 | 106 | 0.0 | 0.0 | 0.00 | 0.00 | 0.00 | 66 | 1007.6 |
| 20260510010404 | 67 | 106 | 0.0 | 0.0 | 0.00 | 0.00 | 0.00 | 66 | 1007.6 |
| 20260510005857 | 67 | 106 | 0.0 | 0.0 | 0.00 | 0.00 | 0.00 | 65 | 1007.6 |
| 20260510005338 | 68 | 106 | 0.0 | 0.0 | 0.00 | 0.00 | 0.00 | 64 | 1007.6 |
| 20260510004839 | 68 | 106 | 0.0 | 0.0 | 0.00 | 0.00 | 0.00 | 63 | 1007.5 |
| 20260510004336 | 68 | 106 | 0.0 | 0.0 | 0.00 | 0.00 | 0.00 | 63 | 1007.5 |
| 20260510003835 | 69 | 106 | 0.0 | 0.0 | 0.00 | 0.00 | 0.00 | 62 | 1007.3 |
| 20260510003342 | 69 | 106 | 0.0 | 0.0 | 0.00 | 0.00 | 0.00 | 61 | 1007.3 |
| 20260510002830 | 70 | 106 | 0.0 | 0.0 | 0.00 | 0.00 | 0.00 | 62 | 1007.3 |
| 20260510002334 | 70 | 106 | 0.0 | 0.0 | 0.00 | 0.00 | 0.00 | 60 | 1007.3 |
| 20260510001910 | 71 | 106 | 0.0 | 0.0 | 0.00 | 0.00 | 0.00 | 60 | 1007.0 |
| 20260510001329 | 71 | 106 | 0.0 | 0.0 | 0.00 | 0.00 | 0.00 | 58 | 1006.9 |
| 20260510000844 | 71 | 106 | 0.0 | 0.0 | 0.00 | 0.00 | 0.00 | 57 | 1006.9 |
| 20260510000341 | 72 | 106 | 0.0 | 0.0 | 0.00 | 0.00 | 0.00 | 57 | 1006.8 |
| 20260509235841 | 72 | 106 | 0.0 | 0.0 | 0.00 | 0.00 | 0.00 | 55 | 1006.7 |
| 20260509235337 | 73 | 106 | 0.0 | 2.0 | 0.00 | 0.00 | 0.00 | 55 | 1006.6 |
| 20260509234904 | 73 | 106 | 0.0 | 2.0 | 0.00 | 0.00 | 0.00 | 54 | 1006.6 |
| 20260509234346 | 74 | 106 | 0.0 | 4.0 | 0.00 | 0.00 | 0.00 | 53 | 1006.7 |
| 20260509233901 | 74 | 106 | 0.0 | 4.0 | 0.00 | 0.00 | 0.00 | 52 | 1006.6 |
| 20260509233347 | 74 | 62 | 0.0 | 2.0 | 0.00 | 0.00 | 0.00 | 51 | 1006.7 |
| 20260509232827 | 75 | 80 | 0.0 | 2.0 | 0.00 | 0.00 | 0.00 | 52 | 1006.7 |
| 20260509232332 | 75 | 83 | 0.0 | 2.0 | 0.00 | 0.00 | 0.00 | 51 | 1006.7 |
| 20260509231833 | 75 | 83 | 0.0 | 0.0 | 0.00 | 0.00 | 0.00 | 50 | 1006.6 |
| 20260509231342 | 76 | 83 | 0.0 | 2.0 | 0.00 | 0.00 | 0.00 | 49 | 1006.6 |
| 20260509230828 | 76 | 83 | 0.0 | 5.0 | 0.00 | 0.00 | 0.00 | 48 | 1006.5 |
| 20260509230332 | 76 | 109 | 0.0 | 3.0 | 0.00 | 0.00 | 0.00 | 49 | 1006.7 |
| 20260509225828 | 75 | 109 | 1.0 | 3.0 | 0.00 | 0.00 | 0.00 | 47 | 1006.6 |
| 20260509225346 | 75 | 18 | 0.0 | 1.0 | 0.00 | 0.00 | 0.00 | 47 | 1006.6 |
| 20260509224830 | 76 | 18 | 0.0 | 3.0 | 0.00 | 0.00 | 0.00 | 48 | 1006.7 |
| 20260509224336 | 76 | 18 | 1.0 | 3.0 | 0.00 | 0.00 | 0.00 | 46 | 1006.7 |
| 20260509223830 | 76 | 75 | 1.0 | 4.0 | 0.00 | 0.00 | 0.00 | 46 | 1006.6 |
| 20260509223333 | 76 | 106 | 1.0 | 4.0 | 0.00 | 0.00 | 0.00 | 46 | 1006.4 |
| 20260509222834 | 77 | 90 | 1.0 | 2.0 | 0.00 | 0.00 | 0.00 | 45 | 1006.4 |
| 20260509222341 | 77 | 330 | 0.0 | 2.0 | 0.00 | 0.00 | 0.00 | 45 | 1006.4 |
| 20260509221900 | 77 | 331 | 0.0 | 3.0 | 0.00 | 0.00 | 0.00 | 44 | 1006.4 |
| 20260509221328 | 77 | 308 | 0.0 | 3.0 | 0.00 | 0.00 | 0.00 | 44 | 1006.5 |
| 20260509220903 | 77 | 13 | 1.0 | 3.0 | 0.00 | 0.00 | 0.00 | 43 | 1006.3 |
| 20260509220329 | 77 | 65 | 0.0 | 2.0 | 0.00 | 0.00 | 0.00 | 44 | 1006.3 |
| 20260509215832 | 77 | 71 | 1.0 | 2.0 | 0.00 | 0.00 | 0.00 | 45 | 1006.3 |
| 20260509215358 | 77 | 70 | 1.0 | 2.0 | 0.00 | 0.00 | 0.00 | 44 | 1006.3 |
| 20260509214917 | 76 | 71 | 0.0 | 2.0 | 0.00 | 0.00 | 0.00 | 44 | 1006.3 |
| 20260509214355 | 77 | 71 | 1.0 | 3.0 | 0.00 | 0.00 | 0.00 | 44 | 1006.3 |
| 20260509213833 | 77 | 82 | 0.0 | 2.0 | 0.00 | 0.00 | 0.00 | 42 | 1006.1 |
| 20260509213337 | 78 | 115 | 0.0 | 2.0 | 0.00 | 0.00 | 0.00 | 42 | 1006.1 |
| 20260509212853 | 78 | 268 | 0.0 | 4.0 | 0.00 | 0.00 | 0.00 | 40 | 1006.1 |
| 20260509212337 | 79 | 85 | 1.0 | 5.0 | 0.00 | 0.00 | 0.00 | 41 | 1006.1 |
| 20260509211835 | 79 | 261 | 0.0 | 5.0 | 0.00 | 0.00 | 0.00 | 41 | 1006.2 |
| 20260509211358 | 79 | 249 | 2.0 | 4.0 | 0.00 | 0.00 | 0.00 | 38 | 1006.2 |
| 20260509210858 | 80 | 344 | 1.0 | 4.0 | 0.00 | 0.00 | 0.00 | 38 | 1006.1 |
| 20260509210329 | 81 | 64 | 1.0 | 2.0 | 0.00 | 0.00 | 0.00 | 39 | 1006.3 |
| 20260509205847 | 81 | 64 | 0.0 | 2.0 | 0.00 | 0.00 | 0.00 | 39 | 1006.3 |
| 20260509205346 | 81 | 45 | 1.0 | 3.0 | 0.00 | 0.00 | 0.00 | 37 | 1006.4 |
| 20260509204853 | 81 | 345 | 1.0 | 5.0 | 0.00 | 0.00 | 0.00 | 38 | 1006.3 |
| 20260509204334 | 81 | 17 | 1.0 | 5.0 | 0.00 | 0.00 | 0.00 | 37 | 1006.3 |
| 20260509203832 | 81 | 242 | 1.0 | 4.0 | 0.00 | 0.00 | 0.00 | 35 | 1006.3 |
| 20260509203343 | 81 | 157 | 1.0 | 4.0 | 0.00 | 0.00 | 0.00 | 39 | 1006.3 |
| 20260509202855 | 80 | 355 | 1.0 | 4.0 | 0.00 | 0.00 | 0.00 | 40 | 1006.3 |
| 20260509202357 | 80 | 92 | 0.0 | 2.0 | 0.00 | 0.00 | 0.00 | 38 | 1006.3 |
| 20260509201831 | 79 | 96 | 1.0 | 2.0 | 0.00 | 0.00 | 0.00 | 39 | 1006.4 |
| 20260509201342 | 80 | 89 | 0.0 | 4.0 | 0.00 | 0.00 | 0.00 | 38 | 1006.4 |